www.cux-wetter.de
Wetterdaten: Mittwoch, 13.06.2007
Datum Zeit Temp. A. Feuchte A. Luftdruck Regen Wind Richtung Richtung Sonnenschein Solar Taupunkt Windchill Windben
13.06.2007 00:09 17,2 C 79 % 1005,5 hPa 0,0 l/m 19,8 km/h (3 Bft) NW 315 0 min 0 W/m 13,5 C 12,6 C 19,8 km/h (3 Bft)
13.06.2007 00:24 17,2 C 79 % 1005,5 hPa 0,0 l/m 22,2 km/h (4 Bft) NW 305 0 min 0 W/m 13,5 C 12,1 C 22,2 km/h (4 Bft)
13.06.2007 00:39 17,2 C 78 % 1005,5 hPa 0,0 l/m 21,8 km/h (4 Bft) W-NW 300 0 min 0 W/m 13,3 C 12,2 C 21,8 km/h (4 Bft)
13.06.2007 00:54 17,3 C 78 % 1005,5 hPa 0,0 l/m 17,9 km/h (3 Bft) NW 315 0 min 0 W/m 13,4 C 13,2 C 17,9 km/h (3 Bft)
13.06.2007 01:09 17,2 C 79 % 1005,5 hPa 0,0 l/m 21,2 km/h (4 Bft) NW 310 0 min 0 W/m 13,5 C 12,3 C 21,2 km/h (4 Bft)
13.06.2007 01:24 17,2 C 78 % 1005,5 hPa 0,0 l/m 20,7 km/h (4 Bft) NW 305 0 min 0 W/m 13,3 C 12,4 C 20,7 km/h (4 Bft)
13.06.2007 01:39 17,1 C 78 % 1005,5 hPa 0,0 l/m 20,8 km/h (4 Bft) NW 320 0 min 0 W/m 13,2 C 12,3 C 20,8 km/h (4 Bft)
13.06.2007 01:54 17,1 C 78 % 1005,5 hPa 0,0 l/m 19,3 km/h (3 Bft) NW 305 0 min 0 W/m 13,2 C 12,6 C 19,3 km/h (3 Bft)
13.06.2007 02:09 17,2 C 77 % 1005,5 hPa 0,0 l/m 20,0 km/h (4 Bft) NW 325 0 min 0 W/m 13,1 C 12,6 C 20,0 km/h (4 Bft)
13.06.2007 02:24 17,1 C 79 % 1005,5 hPa 0,0 l/m 17,3 km/h (3 Bft) NW 315 0 min 0 W/m 13,4 C 13,1 C 17,3 km/h (3 Bft)
13.06.2007 02:39 17,2 C 79 % 1004,5 hPa 0,0 l/m 19,1 km/h (3 Bft) NW 305 0 min 0 W/m 13,5 C 12,8 C 19,1 km/h (3 Bft)
13.06.2007 02:54 17,2 C 79 % 1005,5 hPa 0,0 l/m 20,3 km/h (4 Bft) W-NW 300 0 min 0 W/m 13,5 C 12,5 C 20,3 km/h (4 Bft)
13.06.2007 03:09 17,2 C 78 % 1004,5 hPa 0,0 l/m 18,4 km/h (3 Bft) NW 305 0 min 0 W/m 13,3 C 13,0 C 18,4 km/h (3 Bft)
13.06.2007 03:24 17,3 C 77 % 1004,5 hPa 0,0 l/m 18,5 km/h (3 Bft) NW 310 0 min 0 W/m 13,2 C 13,1 C 18,5 km/h (3 Bft)
13.06.2007 03:39 17,2 C 78 % 1004,5 hPa 0,0 l/m 15,7 km/h (3 Bft) W-NW 295 0 min 0 W/m 13,3 C 13,7 C 15,7 km/h (3 Bft)
13.06.2007 03:54 17,2 C 78 % 1004,5 hPa 0,0 l/m 15,1 km/h (3 Bft) NW 305 0 min 0 W/m 13,3 C 13,8 C 15,1 km/h (3 Bft)
13.06.2007 04:09 17,2 C 76 % 1004,5 hPa 0,0 l/m 17,5 km/h (3 Bft) NW 315 0 min 0 W/m 12,9 C 13,2 C 17,5 km/h (3 Bft)
13.06.2007 04:24 17,3 C 74 % 1004,5 hPa 0,0 l/m 16,6 km/h (3 Bft) W-NW 300 0 min 0 W/m 12,6 C 13,5 C 16,6 km/h (3 Bft)
13.06.2007 04:39 17,3 C 76 % 1004,5 hPa 0,0 l/m 14,1 km/h (3 Bft) W-NW 295 0 min 0 W/m 13,0 C 14,2 C 14,1 km/h (3 Bft)
13.06.2007 04:54 17,2 C 75 % 1004,5 hPa 0,0 l/m 18,6 km/h (3 Bft) NW 310 0 min 0 W/m 12,7 C 12,9 C 18,6 km/h (3 Bft)
13.06.2007 05:09 17,2 C 75 % 1004,5 hPa 0,0 l/m 14,4 km/h (3 Bft) W-NW 300 0 min 0 W/m 12,7 C 14,0 C 14,4 km/h (3 Bft)
13.06.2007 05:24 17,0 C 75 % 1004,5 hPa 0,0 l/m 17,3 km/h (3 Bft) W-NW 295 0 min 0 W/m 12,5 C 13,0 C 17,3 km/h (3 Bft)
13.06.2007 05:39 17,0 C 76 % 1004,5 hPa 0,0 l/m 16,5 km/h (3 Bft) W 280 0 min 0 W/m 12,7 C 13,2 C 16,5 km/h (3 Bft)
13.06.2007 05:54 17,1 C 77 % 1004,5 hPa 0,0 l/m 11,5 km/h (2 Bft) W 265 0 min 0 W/m 13,0 C 14,9 C 11,5 km/h (2 Bft)
13.06.2007 06:09 16,8 C 79 % 1004,5 hPa 0,0 l/m 19,3 km/h (3 Bft) W 270 0 min 0 W/m 13,1 C 12,2 C 19,3 km/h (3 Bft)
13.06.2007 06:24 16,8 C 79 % 1004,5 hPa 0,0 l/m 14,8 km/h (3 Bft) W 265 0 min 0 W/m 13,1 C 13,4 C 14,8 km/h (3 Bft)
13.06.2007 06:39 16,9 C 79 % 1004,5 hPa 0,0 l/m 16,9 km/h (3 Bft) W 275 0 min 0 W/m 13,2 C 13,0 C 16,9 km/h (3 Bft)
13.06.2007 06:54 16,8 C 78 % 1004,5 hPa 0,0 l/m 14,5 km/h (3 Bft) W-NW 285 0 min 0 W/m 12,9 C 13,5 C 14,5 km/h (3 Bft)
13.06.2007 07:09 16,9 C 78 % 1004,5 hPa 0,0 l/m 21,2 km/h (4 Bft) W 270 0 min 0 W/m 13,0 C 11,9 C 21,2 km/h (4 Bft)
13.06.2007 07:24 17,3 C 76 % 1004,5 hPa 0,0 l/m 16,6 km/h (3 Bft) W 270 0 min 0 W/m 13,0 C 13,5 C 16,6 km/h (3 Bft)
13.06.2007 07:39 17,3 C 76 % 1004,5 hPa 0,0 l/m 19,4 km/h (3 Bft) W 270 0 min 0 W/m 13,0 C 12,9 C 19,4 km/h (3 Bft)
13.06.2007 07:54 17,4 C 75 % 1004,5 hPa 0,0 l/m 14,3 km/h (3 Bft) W 270 0 min 0 W/m 12,9 C 14,3 C 14,3 km/h (3 Bft)
13.06.2007 08:09 17,7 C 75 % 1004,5 hPa 0,0 l/m 15,5 km/h (3 Bft) W 265 0 min 0 W/m 13,2 C 14,3 C 15,5 km/h (3 Bft)
13.06.2007 08:24 17,9 C 74 % 1004,5 hPa 0,0 l/m 14,1 km/h (3 Bft) W-NW 285 0 min 0 W/m 13,2 C 15,0 C 14,1 km/h (3 Bft)
13.06.2007 08:39 18,1 C 73 % 1004,5 hPa 0,0 l/m 18,1 km/h (3 Bft) W 260 0 min 0 W/m 13,2 C 14,2 C 18,1 km/h (3 Bft)
13.06.2007 08:54 18,7 C 72 % 1004,5 hPa 0,0 l/m 19,8 km/h (3 Bft) W 265 0 min 0 W/m 13,5 C 14,6 C 19,8 km/h (3 Bft)
13.06.2007 09:09 18,7 C 73 % 1004,5 hPa 0,0 l/m 21,6 km/h (4 Bft) W 265 0 min 0 W/m 13,8 C 14,2 C 21,6 km/h (4 Bft)
13.06.2007 09:24 18,8 C 72 % 1004,5 hPa 0,0 l/m 21,6 km/h (4 Bft) W 270 0 min 0 W/m 13,6 C 14,3 C 21,6 km/h (4 Bft)
13.06.2007 09:39 18,4 C 75 % 1004,5 hPa 0,0 l/m 18,1 km/h (3 Bft) W 260 0 min 0 W/m 13,9 C 14,5 C 18,1 km/h (3 Bft)
13.06.2007 09:54 18,2 C 76 % 1004,5 hPa 0,0 l/m 15,8 km/h (3 Bft) W 280 0 min 0 W/m 13,9 C 14,9 C 15,8 km/h (3 Bft)
13.06.2007 10:09 17,7 C 77 % 1004,5 hPa 0,0 l/m 18,2 km/h (3 Bft) W-NW 295 0 min 0 W/m 13,6 C 13,6 C 18,2 km/h (3 Bft)
13.06.2007 10:24 18,0 C 77 % 1004,5 hPa 0,0 l/m 19,7 km/h (3 Bft) NW 310 0 min 0 W/m 13,9 C 13,7 C 19,7 km/h (3 Bft)
13.06.2007 10:39 17,9 C 78 % 1004,5 hPa 0,0 l/m 17,3 km/h (3 Bft) NW 305 0 min 0 W/m 14,0 C 14,1 C 17,3 km/h (3 Bft)
13.06.2007 10:54 18,0 C 78 % 1004,5 hPa 0,0 l/m 16,4 km/h (3 Bft) W-NW 295 0 min 0 W/m 14,1 C 14,5 C 16,4 km/h (3 Bft)
13.06.2007 11:09 18,0 C 77 % 1005,5 hPa 0,0 l/m 20,4 km/h (4 Bft) NW 310 0 min 0 W/m 13,9 C 13,5 C 20,4 km/h (4 Bft)
13.06.2007 11:24 18,6 C 77 % 1005,5 hPa 0,0 l/m 20,1 km/h (4 Bft) W 275 0 min 0 W/m 14,5 C 14,4 C 20,1 km/h (4 Bft)
13.06.2007 11:39 20,2 C 70 % 1004,5 hPa 0,0 l/m 21,1 km/h (4 Bft) W-NW 290 0 min 0 W/m 14,5 C 16,3 C 21,1 km/h (4 Bft)
13.06.2007 11:54 20,4 C 69 % 1005,5 hPa 0,0 l/m 18,6 km/h (3 Bft) NW 305 0 min 0 W/m 14,5 C 17,0 C 18,6 km/h (3 Bft)
13.06.2007 12:09 20,3 C 69 % 1005,5 hPa 0,0 l/m 20,3 km/h (4 Bft) W-NW 290 0 min 0 W/m 14,4 C 16,5 C 20,3 km/h (4 Bft)
13.06.2007 12:24 21,2 C 65 % 1005,5 hPa 0,0 l/m 22,8 km/h (4 Bft) W-NW 300 0 min 0 W/m 14,4 C 17,3 C 22,8 km/h (4 Bft)
13.06.2007 12:39 21,2 C 66 % 1004,5 hPa 0,0 l/m 18,8 km/h (3 Bft) W 275 0 min 0 W/m 14,6 C 18,0 C 18,8 km/h (3 Bft)
13.06.2007 12:54 21,3 C 66 % 1005,5 hPa 0,0 l/m 22,5 km/h (4 Bft) NW 315 0 min 0 W/m 14,7 C 17,5 C 22,5 km/h (4 Bft)
13.06.2007 13:09 21,4 C 66 % 1005,5 hPa 0,0 l/m 19,0 km/h (3 Bft) NW 305 0 min 0 W/m 14,8 C 18,2 C 19,0 km/h (3 Bft)
13.06.2007 13:24 21,5 C 66 % 1004,5 hPa 0,0 l/m 19,0 km/h (3 Bft) W-NW 295 0 min 0 W/m 14,9 C 18,3 C 19,0 km/h (3 Bft)
13.06.2007 13:39 22,3 C 64 % 1004,5 hPa 0,0 l/m 17,0 km/h (3 Bft) W-NW 295 0 min 0 W/m 15,2 C 19,7 C 17,0 km/h (3 Bft)
13.06.2007 13:54 22,3 C 63 % 1004,5 hPa 0,0 l/m 19,3 km/h (3 Bft) W-NW 290 0 min 0 W/m 14,9 C 19,3 C 19,3 km/h (3 Bft)
13.06.2007 14:09 22,6 C 63 % 1005,5 hPa 0,0 l/m 20,0 km/h (4 Bft) W-NW 300 0 min 0 W/m 15,2 C 19,6 C 20,0 km/h (4 Bft)
13.06.2007 14:24 22,7 C 63 % 1005,5 hPa 0,0 l/m 20,1 km/h (4 Bft) NW 310 0 min 0 W/m 15,3 C 19,7 C 20,1 km/h (4 Bft)
13.06.2007 14:39 22,9 C 62 % 1004,5 hPa 0,0 l/m 18,1 km/h (3 Bft) NW 305 0 min 0 W/m 15,2 C 20,2 C 18,1 km/h (3 Bft)
13.06.2007 14:54 22,5 C 61 % 1004,5 hPa 0,0 l/m 18,5 km/h (3 Bft) W 280 0 min 0 W/m 14,6 C 19,7 C 18,5 km/h (3 Bft)
13.06.2007 15:09 23,1 C 61 % 1004,5 hPa 0,0 l/m 16,7 km/h (3 Bft) NW 305 0 min 0 W/m 15,2 C 20,7 C 16,7 km/h (3 Bft)
13.06.2007 15:24 23,1 C 60 % 1004,5 hPa 0,0 l/m 18,5 km/h (3 Bft) W-NW 300 0 min 0 W/m 14,9 C 20,4 C 18,5 km/h (3 Bft)
13.06.2007 15:39 22,9 C 62 % 1004,5 hPa 0,0 l/m 23,5 km/h (4 Bft) N-NW 335 0 min 0 W/m 15,2 C 19,5 C 23,5 km/h (4 Bft)
13.06.2007 15:54 22,3 C 64 % 1004,5 hPa 0,0 l/m 20,2 km/h (4 Bft) NW 320 0 min 0 W/m 15,2 C 19,1 C 20,2 km/h (4 Bft)
13.06.2007 16:09 21,8 C 66 % 1005,5 hPa 0,0 l/m 18,2 km/h (3 Bft) NW 320 0 min 0 W/m 15,2 C 18,8 C 18,2 km/h (3 Bft)
13.06.2007 16:24 22,8 C 63 % 1004,5 hPa 0,0 l/m 24,6 km/h (4 Bft) NW 310 0 min 0 W/m 15,4 C 19,2 C 24,6 km/h (4 Bft)
13.06.2007 16:39 22,5 C 62 % 1004,5 hPa 0,0 l/m 20,1 km/h (4 Bft) NW 305 0 min 0 W/m 14,8 C 19,4 C 20,1 km/h (4 Bft)
13.06.2007 16:54 22,8 C 61 % 1004,5 hPa 0,0 l/m 18,0 km/h (3 Bft) W-NW 290 0 min 0 W/m 14,9 C 20,1 C 18,0 km/h (3 Bft)
13.06.2007 17:09 22,0 C 63 % 1004,5 hPa 0,0 l/m 17,7 km/h (3 Bft) W-NW 295 0 min 0 W/m 14,6 C 19,2 C 17,7 km/h (3 Bft)
13.06.2007 17:24 22,0 C 62 % 1004,5 hPa 0,0 l/m 15,6 km/h (3 Bft) NW 320 0 min 0 W/m 14,4 C 19,6 C 15,6 km/h (3 Bft)
13.06.2007 17:39 22,5 C 62 % 1004,5 hPa 0,0 l/m 15,2 km/h (3 Bft) NW 315 0 min 0 W/m 14,8 C 20,2 C 15,2 km/h (3 Bft)
13.06.2007 17:54 22,4 C 61 % 1004,5 hPa 0,0 l/m 16,1 km/h (3 Bft) W-NW 300 0 min 0 W/m 14,5 C 20,0 C 16,1 km/h (3 Bft)
13.06.2007 18:09 22,2 C 63 % 1004,5 hPa 0,0 l/m 19,2 km/h (3 Bft) NW 320 0 min 0 W/m 14,8 C 19,2 C 19,2 km/h (3 Bft)
13.06.2007 18:24 21,9 C 62 % 1004,5 hPa 0,0 l/m 17,3 km/h (3 Bft) W-NW 295 0 min 0 W/m 14,3 C 19,1 C 17,3 km/h (3 Bft)
13.06.2007 18:39 21,4 C 64 % 1004,5 hPa 0,0 l/m 14,2 km/h (3 Bft) NW 305 0 min 0 W/m 14,3 C 19,1 C 14,2 km/h (3 Bft)
13.06.2007 18:54 21,3 C 62 % 1004,5 hPa 0,0 l/m 12,9 km/h (3 Bft) NW 305 0 min 0 W/m 13,7 C 19,3 C 12,9 km/h (3 Bft)
13.06.2007 19:09 21,1 C 62 % 1004,5 hPa 0,0 l/m 12,3 km/h (2 Bft) W-NW 295 0 min 0 W/m 13,5 C 19,2 C 12,3 km/h (2 Bft)
13.06.2007 19:24 21,1 C 63 % 1004,5 hPa 0,0 l/m 15,5 km/h (3 Bft) NW 315 0 min 0 W/m 13,8 C 18,5 C 15,5 km/h (3 Bft)
13.06.2007 19:39 21,0 C 63 % 1004,5 hPa 0,0 l/m 11,5 km/h (2 Bft) W-NW 295 0 min 0 W/m 13,7 C 19,3 C 11,5 km/h (2 Bft)
13.06.2007 19:54 20,7 C 64 % 1004,5 hPa 0,0 l/m 14,0 km/h (3 Bft) NW 315 0 min 0 W/m 13,6 C 18,3 C 14,0 km/h (3 Bft)
13.06.2007 20:09 20,6 C 65 % 1004,5 hPa 0,0 l/m 14,0 km/h (3 Bft) NW 315 0 min 0 W/m 13,8 C 18,2 C 14,0 km/h (3 Bft)
13.06.2007 20:24 20,2 C 66 % 1004,5 hPa 0,0 l/m 10,4 km/h (2 Bft) W-NW 285 0 min 0 W/m 13,6 C 18,7 C 10,4 km/h (2 Bft)
13.06.2007 20:39 20,5 C 67 % 1004,5 hPa 0,0 l/m 8,9 km/h (2 Bft) NW 320 0 min 0 W/m 14,2 C 19,6 C 8,9 km/h (2 Bft)
13.06.2007 20:54 20,2 C 69 % 1004,5 hPa 0,0 l/m 16,1 km/h (3 Bft) NW 320 0 min 0 W/m 14,3 C 17,2 C 16,1 km/h (3 Bft)
13.06.2007 21:09 19,7 C 72 % 1004,5 hPa 0,0 l/m 16,8 km/h (3 Bft) NW 320 0 min 0 W/m 14,5 C 16,5 C 16,8 km/h (3 Bft)
13.06.2007 21:24 19,6 C 73 % 1004,5 hPa 0,0 l/m 12,1 km/h (2 Bft) NW 315 0 min 0 W/m 14,6 C 17,5 C 12,1 km/h (2 Bft)
13.06.2007 21:39 19,3 C 73 % 1004,5 hPa 0,0 l/m 15,5 km/h (3 Bft) NW 310 0 min 0 W/m 14,3 C 16,3 C 15,5 km/h (3 Bft)
13.06.2007 21:54 19,0 C 75 % 1004,5 hPa 0,0 l/m 14,6 km/h (3 Bft) NW 305 0 min 0 W/m 14,5 C 16,1 C 14,6 km/h (3 Bft)
13.06.2007 22:10 18,7 C 77 % 1004,5 hPa 0,0 l/m 12,8 km/h (3 Bft) NW 310 0 min 0 W/m 14,6 C 16,3 C 12,8 km/h (3 Bft)
13.06.2007 22:25 18,5 C 78 % 1004,5 hPa 0,0 l/m 16,6 km/h (3 Bft) W-NW 295 0 min 0 W/m 14,6 C 15,0 C 16,6 km/h (3 Bft)
13.06.2007 22:40 18,4 C 79 % 1005,5 hPa 0,0 l/m 15,5 km/h (3 Bft) W-NW 300 0 min 0 W/m 14,7 C 15,2 C 15,5 km/h (3 Bft)
13.06.2007 22:55 18,4 C 81 % 1005,5 hPa 0,0 l/m 15,6 km/h (3 Bft) NW 310 0 min 0 W/m 15,1 C 15,2 C 15,6 km/h (3 Bft)
13.06.2007 23:10 18,2 C 81 % 1005,5 hPa 0,0 l/m 15,5 km/h (3 Bft) W-NW 300 0 min 0 W/m 14,9 C 14,9 C 15,5 km/h (3 Bft)
13.06.2007 23:25 18,0 C 76 % 1005,5 hPa 0,0 l/m 9,8 km/h (2 Bft) W-NW 285 0 min 0 W/m 13,7 C 16,5 C 9,8 km/h (2 Bft)
13.06.2007 23:40 17,9 C 72 % 1005,5 hPa 0,0 l/m 21,0 km/h (4 Bft) W-NW 295 0 min 0 W/m 12,8 C 13,3 C 21,0 km/h (4 Bft)
13.06.2007 23:55 17,6 C 76 % 1005,5 hPa 0,0 l/m 19,2 km/h (3 Bft) W-NW 290 0 min 0 W/m 13,3 C 13,3 C 19,2 km/h (3 Bft)
_ Min-Zeit 06:09 15:24 02:39 - 20:39 - - - - 05:24 07:09 20:39
Minimum _ 16,8 C 60 % 1004,5 hPa - 8,9 km/h (2 Bft) - - - - 12,5 C 11,9 C 8,9 km/h (2 Bft)
_ Max-Zeit 15:09 22:55 00:09 00:09 16:24 - - 00:09 00:09 16:24 15:09 16:24
Maximum _ 23,1 C 81 % 1005,5 hPa 0,0 l/m 24,6 km/h
NW (4 Bft)
- - 0 min 0 W/m 15,4 C 20,7 C 24,6 km/h
NW (4 Bft)
Durchschnitt _ 19,3 C 72 % 1004,8 hPa #0,0 l/m 17,5 km/h (3 Bft) NW - #0 min. 0 W/m 13,9 C 15,9 C 17,5 km/h (3 Bft)
copyright by Holger Just